User: anonymous   Login
Location: Unspecified
(0.0000°N, 0.0000°E)
Time: 20:46:10
(UTC+00:00)
Language:

STARLINK-2226 - Orbit

View from above orbital plane
View from above orbital plane
View from above satellite
View from above satellite

Ground track
Ground track

The orbit is defined by the following mean orbital elements,

1 48010U          26145.51467678 +.00000000 +00000-0 +83050-4 0 00008
2 48010  53.1619 335.3537 0002204  91.7044 268.4210 15.31702271    04
Epoch (UTC): 25 May 2026 12:21:08
Eccentricity: 0.0002204
inclination: 53.1619°
perigee height: 469 km
apogee height: 472 km
right ascension of ascending node: 335.3537°
argument of perigee: 91.7044°
revolutions per day: 15.31702271
mean anomaly at epoch: 268.4210°

The dashed part of the orbit path shows where the satellite is in the earth's shadow,  

DLR